DELTA 1 DEB, 10840

Orbit data source: Space-Track

DELTA 1 DEB, 10840 is space debris in SSO originally from a launch on Thu, 29 Jul 1976 UTC launched from the Air Force Western Test Range (AFWTR). Debris objects in space refer to the collection of defunct objects orbiting the Earth. Examples of debris include non-operational satellites, rocket bodies, and fragments generated from explosions, collisions, or faulty payload assembly.

Loading next visibility...
Identifier
10840, 1976-077CL
Orbit
SSO
Country
Flag of USUS
Related business
Manufacturer
Unknown
Mission
Spacecraft
Bus & Motor
Unknown
Mass
Unknown
Launch date (UTC)
1976-07-29 (50 years ago)
Launch vehicle
Unknown
Launch site
Air Force Western Test Range (AFWTR)
Object type
Payload
Rocket body
Debris
Shape & HBR
Unknown shape, 0.3 m
Radar Cross Section
Medium (>0.1 m² and <1 m²)

Expand to show TLE details & history
Last TLE update: 19 hours ago

TLE from 19 hours ago
0 DELTA 1 DEB
1 10840U 76077CL  26073.20496106  .00000024  00000-0  67830-3 0  9999
2 10840 102.6210 172.8076 0142312 197.9766 235.0126 12.16052195203394
Epoch: 2026-03-14T04:55Z
TLE epoch observation values (Epoch: 2026-03-14T04:55:08.635Z)
Latitude
67.94446°
Longitude
-106.17588°
Altitude
1,687.601 km
Speed
7.008 km/s
True Right ascension
09h 17m 45s
True Declination
67° 50' 18"
Sunlit
Object was in daylight at epoch
Visualization orbit readout
Latitude
Unknown
Longitude
Unknown
Altitude
Unknown
Speed
Unknown
Apparent Right ascension
Unknown
Apparent Declination
Unknown
Sunlit
N/A
Visualization observer readout
Local Sidereal Time
04:50:47
Azimuth
Unknown
Elevation
Unknown
Doppler factor
Unknown
Orbital elements
Apogee altitude
1,721.07 km
Perigee altitude
1,493.781 km
Semi-major axis
7,985.563 km
Eccentricity
0.01423
Inclination
102.621°
RAAN
172.8076°
Arg. of periapsis
197.9766°
True anomaly
233.69015°
Mean anomaly
235.0126°
Eccentric anomaly
234.35002°
Mean motion
3.04148 °/min
Orbital period
118.36 mins
BSTAR
0.0006783
Loading maneuver chart data...
Computing Atmospheric mass density...
Loading historical data...
Loading historical data...
Loading historical data...
Loading historical data...
Loading historical data...
Loading historical data...
Loading historical data...

Documentation

Showing up to 5 results
|